StationID,Date,MaxTemp,MinTemp,Precipitation,Snowfall,SnowDepth
"USC00500522","1936-11-01",,,,0.00,
"USC00500522","1936-11-02",,,693.00,0.00,
"USC00500522","1936-11-03",,,,0.00,
"USC00500522","1936-11-04",,,,0.00,
"USC00500522","1936-11-05",39.02,35.06,0.00,0.00,
"USC00500522","1936-11-06",37.94,33.08,64.00,0.00,
"USC00500522","1936-11-07",44.96,35.96,521.00,0.00,
"USC00500522","1936-11-08",46.04,37.94,99.00,0.00,
"USC00500522","1936-11-09",44.96,39.02,287.00,0.00,
"USC00500522","1936-11-10",44.06,35.06,76.00,0.00,
"USC00500522","1936-11-11",46.94,39.92,478.00,0.00,
"USC00500522","1936-11-12",46.94,42.08,498.00,0.00,
"USC00500522","1936-11-13",46.04,41.00,236.00,0.00,
"USC00500522","1936-11-14",51.08,39.02,231.00,0.00,
"USC00500522","1936-11-15",51.98,46.04,531.00,0.00,
"USC00500522","1936-11-16",46.94,42.08,145.00,0.00,
"USC00500522","1936-11-17",57.02,42.08,775.00,0.00,
"USC00500522","1936-11-18",57.02,41.00,269.00,0.00,
"USC00500522","1936-11-19",46.94,35.96,221.00,0.00,
"USC00500522","1936-11-20",42.98,39.02,508.00,0.00,
"USC00500522","1936-11-21",44.96,37.94,483.00,0.00,
"USC00500522","1936-11-22",50.00,39.02,721.00,0.00,
"USC00500522","1936-11-23",50.00,42.08,272.00,0.00,
"USC00500522","1936-11-24",48.92,42.08,0.00,0.00,
"USC00500522","1936-11-25",48.02,35.06,0.00,0.00,
"USC00500522","1936-11-26",44.96,37.04,38.00,0.00,
"USC00500522","1936-11-27",46.94,42.08,109.00,0.00,
"USC00500522","1936-11-28",46.04,39.92,56.00,0.00,
"USC00500522","1936-11-29",46.94,39.92,112.00,0.00,
"USC00500522","1936-11-30",48.92,42.08,917.00,0.00,
"USC00500522","1936-12-01",48.92,37.94,841.00,,
"USC00500522","1936-12-02",42.08,35.96,43.00,,
"USC00500522","1936-12-03",39.02,28.04,0.00,,
"USC00500522","1936-12-04",30.92,19.94,0.00,0.00,
"USC00500522","1936-12-05",28.04,17.96,498.00,274.00,
"USC00500522","1936-12-06",28.94,23.00,511.00,208.00,
"USC00500522","1936-12-07",37.94,24.08,89.00,102.00,178.00
"USC00500522","1936-12-08",32.00,23.00,25.00,,51.00
"USC00500522","1936-12-09",35.06,26.96,221.00,,
"USC00500522","1936-12-10",39.92,33.08,538.00,,
"USC00500522","1936-12-11",37.04,30.92,170.00,229.00,
"USC00500522","1936-12-12",39.02,32.00,592.00,25.00,
"USC00500522","1936-12-13",37.94,32.00,315.00,,
"USC00500522","1936-12-14",35.96,30.02,401.00,135.00,127.00
"USC00500522","1936-12-15",35.06,30.92,424.00,127.00,229.00
"USC00500522","1936-12-16",35.96,32.00,475.00,150.00,356.00
"USC00500522","1936-12-17",35.96,28.94,198.00,,559.00
"USC00500522","1936-12-18",33.08,28.04,152.00,188.00,737.00
"USC00500522","1936-12-19",35.06,28.04,300.00,,965.00
"USC00500522","1936-12-20",28.94,19.94,0.00,,940.00
"USC00500522","1936-12-21",32.00,24.98,196.00,229.00,1041.00
"USC00500522","1936-12-22",28.94,24.08,51.00,,1041.00
"USC00500522","1936-12-23",28.04,21.02,0.00,,1041.00
"USC00500522","1936-12-24",30.92,24.08,56.00,61.00,1067.00
"USC00500522","1936-12-25",33.08,28.04,376.00,279.00,1270.00
"USC00500522","1936-12-26",33.98,26.06,274.00,,1575.00
"USC00500522","1936-12-27",28.94,17.96,0.00,,1549.00
"USC00500522","1936-12-28",33.08,19.94,51.00,,1575.00
"USC00500522","1936-12-29",33.08,17.06,246.00,,1600.00
"USC00500522","1936-12-30",26.06,14.00,0.00,,1600.00
"USC00500522","1936-12-31",28.04,15.98,0.00,,1575.00
"USC00500522","1937-01-01",30.02,19.04,0.00,0.00,
"USC00500522","1937-01-02",35.06,26.96,71.00,20.00,1422.00
"USC00500522","1937-01-03",39.92,30.02,384.00,38.00,1295.00
"USC00500522","1937-01-04",32.00,21.02,0.00,0.00,
"USC00500522","1937-01-05",26.96,15.08,0.00,0.00,
"USC00500522","1937-01-06",37.04,21.92,48.00,25.00,1219.00
"USC00500522","1937-01-07",35.06,30.02,0.00,0.00,
"USC00500522","1937-01-08",35.96,32.00,259.00,28.00,1219.00
"USC00500522","1937-01-09",37.04,28.94,0.00,0.00,
"USC00500522","1937-01-10",32.00,,0.00,0.00,
"USC00500522","1937-01-11",35.06,26.96,0.00,0.00,
"USC00500522","1937-01-12",37.04,30.92,142.00,0.00,
"USC00500522","1937-01-13",35.06,21.92,0.00,0.00,
"USC00500522","1937-01-14",26.06,12.02,0.00,0.00,
"USC00500522","1937-01-15",26.96,12.02,0.00,0.00,
"USC00500522","1937-01-16",35.06,24.08,234.00,140.00,1270.00
"USC00500522","1937-01-17",35.06,28.04,0.00,0.00,
"USC00500522","1937-01-18",30.92,12.92,0.00,0.00,
"USC00500522","1937-01-19",32.00,17.06,51.00,38.00,1245.00
"USC00500522","1937-01-20",35.06,28.04,0.00,0.00,
"USC00500522","1937-01-21",46.94,32.00,64.00,0.00,1168.00
"USC00500522","1937-01-22",42.98,33.98,0.00,0.00,
"USC00500522","1937-01-23",42.08,26.06,0.00,0.00,
"USC00500522","1937-01-24",28.94,21.02,257.00,254.00,1245.00
"USC00500522","1937-01-25",35.06,19.94,38.00,28.00,1372.00
"USC00500522","1937-01-26",28.94,19.94,0.00,0.00,
"USC00500522","1937-01-27",30.92,15.98,0.00,0.00,
"USC00500522","1937-01-28",35.06,8.96,0.00,0.00,
"USC00500522","1937-01-29",28.04,12.02,0.00,0.00,
"USC00500522","1937-01-30",37.04,21.02,53.00,97.00,1422.00
"USC00500522","1937-01-31",33.08,21.92,0.00,0.00,
"USC00500522","1937-02-01",26.06,17.06,,0.00,
"USC00500522","1937-02-02",21.92,12.02,0.00,,
"USC00500522","1937-02-03",21.02,10.04,0.00,,
"USC00500522","1937-02-04",35.96,8.06,0.00,,
"USC00500522","1937-02-05",37.04,15.08,0.00,,
"USC00500522","1937-02-06",37.04,15.98,0.00,,
"USC00500522","1937-02-07",37.94,15.08,41.00,,1092.00
"USC00500522","1937-02-08",33.98,24.98,152.00,229.00,1270.00
"USC00500522","1937-02-09",39.02,26.96,127.00,152.00,1397.00
"USC00500522","1937-02-10",37.04,21.92,64.00,127.00,1473.00
"USC00500522","1937-02-11",33.08,28.94,615.00,381.00,1575.00
"USC00500522","1937-02-12",33.08,21.92,86.00,127.00,1727.00
"USC00500522","1937-02-13",37.04,21.02,216.00,373.00,2083.00
"USC00500522","1937-02-14",33.98,28.04,706.00,584.00,2591.00
"USC00500522","1937-02-15",37.04,19.94,107.00,76.00,2642.00
"USC00500522","1937-02-16",33.98,17.96,53.00,89.00,2692.00
"USC00500522","1937-02-17",33.08,14.00,0.00,0.00,
"USC00500522","1937-02-18",32.00,8.96,152.00,114.00,2794.00
"USC00500522","1937-02-19",33.08,24.98,267.00,279.00,3048.00
"USC00500522","1937-02-20",37.04,28.94,442.00,330.00,3327.00
"USC00500522","1937-02-21",41.00,28.94,0.00,,
"USC00500522","1937-02-22",37.04,28.94,0.00,0.00,
"USC00500522","1937-02-23",35.06,26.96,117.00,76.00,3353.00
"USC00500522","1937-02-24",39.02,32.00,538.00,89.00,3429.00
"USC00500522","1937-02-25",41.00,28.94,127.00,,3175.00
"USC00500522","1937-02-26",37.94,30.92,13.00,0.00,
"USC00500522","1937-02-27",42.08,30.92,0.00,,
"USC00500522","1937-02-28",41.00,32.00,0.00,,
"USC00500522","1937-03-01",39.02,32.00,0.00,0.00,
"USC00500522","1937-03-02",37.94,26.96,0.00,0.00,
"USC00500522","1937-03-03",39.02,30.92,208.00,127.00,2159.00
"USC00500522","1937-03-04",39.02,33.08,406.00,0.00,1829.00
"USC00500522","1937-03-05",39.92,33.08,432.00,0.00,
"USC00500522","1937-03-06",39.02,30.92,630.00,25.00,1803.00
"USC00500522","1937-03-07",51.98,33.08,546.00,0.00,
"USC00500522","1937-03-08",41.00,32.00,0.00,0.00,
"USC00500522","1937-03-09",44.06,33.98,152.00,0.00,
"USC00500522","1937-03-10",42.98,35.06,508.00,0.00,
"USC00500522","1937-03-11",51.98,35.96,272.00,0.00,
"USC00500522","1937-03-12",51.08,32.00,0.00,0.00,
"USC00500522","1937-03-13",44.96,30.02,0.00,0.00,
"USC00500522","1937-03-14",37.94,33.08,0.00,0.00,
"USC00500522","1937-03-15",44.06,33.98,140.00,0.00,
"USC00500522","1937-03-16",42.98,33.98,211.00,0.00,
"USC00500522","1937-03-17",46.94,28.94,0.00,0.00,
"USC00500522","1937-03-18",37.94,26.06,0.00,0.00,
"USC00500522","1937-03-19",46.04,33.98,0.00,0.00,
"USC00500522","1937-03-20",51.08,35.96,0.00,0.00,
"USC00500522","1937-03-21",44.96,23.00,0.00,0.00,
"USC00500522","1937-03-22",41.00,21.02,0.00,0.00,
"USC00500522","1937-03-23",42.98,28.04,0.00,0.00,
"USC00500522","1937-03-24",50.00,28.04,0.00,0.00,
"USC00500522","1937-03-25",42.98,30.02,0.00,0.00,
"USC00500522","1937-03-26",42.98,32.00,0.00,0.00,
"USC00500522","1937-03-27",42.08,26.96,0.00,0.00,
"USC00500522","1937-03-28",42.98,30.02,76.00,25.00,1321.00
"USC00500522","1937-03-29",37.04,32.00,328.00,203.00,1524.00
"USC00500522","1937-03-30",39.02,32.00,262.00,25.00,1473.00
"USC00500522","1937-03-31",44.06,33.08,122.00,0.00,
"USC00500522","1937-04-01",46.94,33.08,0.00,0.00,
"USC00500522","1937-04-02",41.00,32.00,79.00,0.00,
"USC00500522","1937-04-03",48.02,32.00,0.00,0.00,
"USC00500522","1937-04-04",42.98,30.92,206.00,0.00,
"USC00500522","1937-04-05",44.06,35.06,371.00,0.00,
"USC00500522","1937-04-06",46.04,33.08,30.00,0.00,
"USC00500522","1937-04-07",39.92,33.98,513.00,0.00,
"USC00500522","1937-04-08",44.06,35.06,490.00,0.00,
"USC00500522","1937-04-09",46.94,35.96,102.00,0.00,
"USC00500522","1937-04-10",48.92,33.08,0.00,0.00,
"USC00500522","1937-04-11",46.04,35.06,0.00,0.00,
"USC00500522","1937-04-12",48.92,35.96,76.00,0.00,
"USC00500522","1937-04-13",44.96,30.02,0.00,0.00,
"USC00500522","1937-04-14",48.92,33.98,0.00,0.00,
"USC00500522","1937-04-15",50.00,33.08,0.00,0.00,
"USC00500522","1937-04-16",44.96,33.98,559.00,0.00,
"USC00500522","1937-04-17",44.06,37.04,284.00,0.00,
"USC00500522","1937-04-18",44.06,33.98,0.00,0.00,
"USC00500522","1937-04-19",42.08,33.08,165.00,0.00,
"USC00500522","1937-04-20",50.00,32.00,0.00,0.00,
"USC00500522","1937-04-21",50.00,30.92,0.00,0.00,
"USC00500522","1937-04-22",48.02,33.08,0.00,0.00,
"USC00500522","1937-04-23",48.02,33.98,0.00,0.00,
"USC00500522","1937-04-24",50.00,33.98,0.00,0.00,
"USC00500522","1937-04-25",46.94,28.04,0.00,0.00,
"USC00500522","1937-04-26",50.00,32.00,53.00,0.00,
"USC00500522","1937-04-27",44.06,28.94,0.00,0.00,
"USC00500522","1937-04-28",44.06,30.02,81.00,51.00,
"USC00500522","1937-04-29",42.98,32.00,264.00,25.00,
"USC00500522","1937-04-30",48.02,33.08,325.00,0.00,
"USC00500522","1937-05-01",51.98,35.06,46.00,0.00,
"USC00500522","1937-05-02",51.98,30.02,0.00,0.00,
"USC00500522","1937-05-03",53.06,35.06,0.00,0.00,
"USC00500522","1937-05-04",53.06,32.00,0.00,0.00,
"USC00500522","1937-05-05",51.98,35.06,0.00,0.00,
"USC00500522","1937-05-06",53.06,32.00,0.00,0.00,
"USC00500522","1937-05-07",57.92,35.06,0.00,0.00,
"USC00500522","1937-05-08",53.06,37.04,0.00,0.00,
"USC00500522","1937-05-09",57.92,37.04,15.00,0.00,
"USC00500522","1937-05-10",57.92,39.02,18.00,0.00,
"USC00500522","1937-05-11",51.98,39.92,208.00,0.00,
"USC00500522","1937-05-12",48.02,37.04,203.00,0.00,
"USC00500522","1937-05-13",48.02,35.96,30.00,0.00,
"USC00500522","1937-05-14",50.00,37.04,0.00,0.00,
"USC00500522","1937-05-15",50.00,35.06,0.00,0.00,
"USC00500522","1937-05-16",46.04,39.02,175.00,0.00,
"USC00500522","1937-05-17",55.04,37.04,0.00,0.00,
"USC00500522","1937-05-18",53.96,37.94,0.00,0.00,
"USC00500522","1937-05-19",53.96,39.02,51.00,0.00,
"USC00500522","1937-05-20",51.08,39.02,84.00,0.00,
"USC00500522","1937-05-21",51.08,37.94,191.00,0.00,
"USC00500522","1937-05-22",51.98,37.94,0.00,0.00,
"USC00500522","1937-05-23",48.92,39.92,66.00,0.00,
"USC00500522","1937-05-24",55.94,39.92,33.00,0.00,
"USC00500522","1937-05-25",53.06,41.00,43.00,0.00,
"USC00500522","1937-05-26",53.06,39.02,0.00,0.00,
"USC00500522","1937-05-27",55.04,39.02,0.00,0.00,
"USC00500522","1937-05-28",55.94,37.04,0.00,0.00,
"USC00500522","1937-05-29",55.04,35.96,0.00,0.00,
"USC00500522","1937-05-30",57.02,42.08,147.00,0.00,
"USC00500522","1937-05-31",51.98,37.94,23.00,0.00,
"USC00500522","1937-06-01",53.96,46.04,81.00,0.00,
"USC00500522","1937-06-02",53.96,39.92,79.00,0.00,
"USC00500522","1937-06-03",57.92,39.92,0.00,0.00,
"USC00500522","1937-06-04",60.08,39.02,0.00,0.00,
"USC00500522","1937-06-05",64.04,44.06,0.00,0.00,
"USC00500522","1937-06-06",66.02,39.92,0.00,0.00,
"USC00500522","1937-06-07",73.94,46.04,0.00,0.00,
"USC00500522","1937-06-08",73.94,46.94,0.00,0.00,
"USC00500522","1937-06-09",78.08,48.02,0.00,0.00,
"USC00500522","1937-06-10",75.02,48.92,0.00,0.00,
"USC00500522","1937-06-11",66.92,46.04,0.00,0.00,
"USC00500522","1937-06-12",71.06,48.02,0.00,0.00,
"USC00500522","1937-06-13",64.94,46.04,0.00,0.00,
"USC00500522","1937-06-14",64.04,48.02,38.00,0.00,
"USC00500522","1937-06-15",66.92,46.94,0.00,0.00,
"USC00500522","1937-06-16",64.94,48.92,0.00,0.00,
"USC00500522","1937-06-17",68.00,46.94,0.00,0.00,
"USC00500522","1937-06-18",59.00,46.04,48.00,0.00,
"USC00500522","1937-06-19",55.04,48.02,102.00,0.00,
"USC00500522","1937-06-20",57.02,44.06,79.00,0.00,
"USC00500522","1937-06-21",59.00,46.94,69.00,0.00,
"USC00500522","1937-06-22",68.00,41.00,0.00,0.00,
"USC00500522","1937-06-23",62.96,48.02,0.00,0.00,
"USC00500522","1937-06-24",60.08,46.04,0.00,0.00,
"USC00500522","1937-06-25",60.08,46.94,155.00,0.00,
"USC00500522","1937-06-26",55.04,44.06,114.00,0.00,
"USC00500522","1937-06-27",60.08,48.02,0.00,0.00,
"USC00500522","1937-06-28",64.04,44.96,0.00,0.00,
"USC00500522","1937-06-29",60.98,46.94,102.00,0.00,
"USC00500522","1937-06-30",62.06,42.08,0.00,0.00,
"USC00500522","1937-07-01",64.04,42.08,0.00,0.00,
"USC00500522","1937-07-02",64.94,44.96,0.00,0.00,
"USC00500522","1937-07-03",64.94,46.94,0.00,0.00,
"USC00500522","1937-07-04",66.92,48.02,0.00,0.00,
"USC00500522","1937-07-05",62.06,50.00,0.00,0.00,
"USC00500522","1937-07-06",57.92,48.02,46.00,0.00,
"USC00500522","1937-07-07",55.04,48.02,48.00,0.00,
"USC00500522","1937-07-08",55.94,46.94,36.00,0.00,
"USC00500522","1937-07-09",57.02,46.04,0.00,0.00,
"USC00500522","1937-07-10",62.06,42.98,0.00,0.00,
"USC00500522","1937-07-11",62.96,44.96,0.00,0.00,
"USC00500522","1937-07-12",60.08,51.08,23.00,0.00,
"USC00500522","1937-07-13",71.96,50.00,0.00,0.00,
"USC00500522","1937-07-14",64.04,51.98,0.00,0.00,
"USC00500522","1937-07-15",66.92,50.00,0.00,0.00,
"USC00500522","1937-07-16",62.06,48.02,0.00,0.00,
"USC00500522","1937-07-17",60.08,48.92,0.00,0.00,
"USC00500522","1937-07-18",57.02,51.08,119.00,0.00,
"USC00500522","1937-07-19",62.06,51.08,290.00,0.00,
"USC00500522","1937-07-20",57.92,50.00,114.00,0.00,
"USC00500522","1937-07-21",60.08,48.92,0.00,0.00,
"USC00500522","1937-07-22",57.02,50.00,86.00,0.00,
"USC00500522","1937-07-23",57.02,50.00,74.00,0.00,
"USC00500522","1937-07-24",59.00,51.08,89.00,0.00,
"USC00500522","1937-07-25",62.06,46.04,0.00,0.00,
"USC00500522","1937-07-26",60.08,48.02,71.00,0.00,
"USC00500522","1937-07-27",57.92,51.98,28.00,0.00,
"USC00500522","1937-07-28",59.00,48.02,0.00,0.00,
"USC00500522","1937-07-29",60.08,48.92,33.00,0.00,
"USC00500522","1937-07-30",66.02,46.04,0.00,0.00,
"USC00500522","1937-07-31",60.08,46.94,0.00,0.00,
"USC00500522","1937-08-01",57.92,48.92,145.00,0.00,
"USC00500522","1937-08-02",60.08,51.08,396.00,0.00,
"USC00500522","1937-08-03",55.94,50.00,191.00,0.00,
"USC00500522","1937-08-04",57.02,48.02,287.00,0.00,
"USC00500522","1937-08-05",62.96,48.02,0.00,0.00,
"USC00500522","1937-08-06",62.96,46.04,0.00,0.00,
"USC00500522","1937-08-07",57.92,46.04,33.00,0.00,
"USC00500522","1937-08-08",60.08,44.96,0.00,0.00,
"USC00500522","1937-08-09",60.08,46.04,0.00,0.00,
"USC00500522","1937-08-10",57.92,48.02,259.00,0.00,
"USC00500522","1937-08-11",57.02,46.04,152.00,0.00,
"USC00500522","1937-08-12",60.08,44.96,0.00,0.00,
"USC00500522","1937-08-13",60.98,42.08,38.00,0.00,
"USC00500522","1937-08-14",69.98,48.02,0.00,0.00,
"USC00500522","1937-08-15",64.94,48.02,0.00,0.00,
"USC00500522","1937-08-16",60.08,46.94,0.00,0.00,
"USC00500522","1937-08-17",62.06,50.00,0.00,0.00,
"USC00500522","1937-08-18",66.92,51.08,0.00,0.00,
"USC00500522","1937-08-19",60.08,48.92,0.00,0.00,
"USC00500522","1937-08-20",55.94,51.98,305.00,0.00,
"USC00500522","1937-08-21",66.92,50.00,64.00,0.00,
"USC00500522","1937-08-22",62.96,46.94,36.00,0.00,
"USC00500522","1937-08-23",60.98,50.00,76.00,0.00,
"USC00500522","1937-08-24",57.02,48.92,132.00,0.00,
"USC00500522","1937-08-25",62.06,44.06,0.00,0.00,
"USC00500522","1937-08-26",62.96,44.96,0.00,0.00,
"USC00500522","1937-08-27",55.94,44.96,0.00,0.00,
"USC00500522","1937-08-28",60.08,48.92,76.00,0.00,
"USC00500522","1937-08-29",62.06,50.00,53.00,0.00,
"USC00500522","1937-08-30",69.08,44.96,0.00,0.00,
"USC00500522","1937-08-31",66.02,44.96,0.00,0.00,
"USC00500522","1937-09-01",66.02,50.00,0.00,0.00,
"USC00500522","1937-09-02",66.92,48.92,0.00,0.00,
"USC00500522","1937-09-03",71.06,50.00,0.00,0.00,
"USC00500522","1937-09-04",68.00,42.98,0.00,0.00,
"USC00500522","1937-09-05",71.06,44.06,0.00,0.00,
"USC00500522","1937-09-06",60.98,46.94,66.00,0.00,
"USC00500522","1937-09-07",53.06,48.92,279.00,0.00,
"USC00500522","1937-09-08",55.04,48.92,140.00,0.00,
"USC00500522","1937-09-09",55.94,50.00,173.00,0.00,
"USC00500522","1937-09-10",57.92,51.98,287.00,0.00,
"USC00500522","1937-09-11",60.08,50.00,135.00,0.00,
"USC00500522","1937-09-12",55.04,46.94,109.00,0.00,
"USC00500522","1937-09-13",53.96,48.92,368.00,0.00,
"USC00500522","1937-09-14",62.06,46.04,20.00,0.00,
"USC00500522","1937-09-15",59.00,42.98,0.00,0.00,
"USC00500522","1937-09-16",62.06,44.96,0.00,0.00,
"USC00500522","1937-09-17",62.06,46.94,0.00,0.00,
"USC00500522","1937-09-18",55.94,48.02,18.00,0.00,
"USC00500522","1937-09-19",57.02,44.06,155.00,0.00,
"USC00500522","1937-09-20",51.08,44.06,58.00,0.00,
"USC00500522","1937-09-21",57.02,42.98,0.00,0.00,
"USC00500522","1937-09-22",53.06,39.92,0.00,0.00,
"USC00500522","1937-09-23",50.00,39.02,272.00,0.00,
"USC00500522","1937-09-24",51.98,46.04,0.00,0.00,
"USC00500522","1937-09-25",57.02,46.94,0.00,0.00,
"USC00500522","1937-09-26",60.08,44.96,33.00,0.00,
"USC00500522","1937-09-27",57.92,39.92,0.00,0.00,
"USC00500522","1937-09-28",51.98,37.94,0.00,0.00,
"USC00500522","1937-09-29",53.96,42.98,0.00,0.00,
"USC00500522","1937-09-30",53.96,44.96,0.00,0.00,
"USC00500522","1937-10-01",60.08,41.00,0.00,0.00,
"USC00500522","1937-10-02",57.92,35.06,0.00,0.00,
"USC00500522","1937-10-03",51.98,33.08,0.00,0.00,
"USC00500522","1937-10-04",48.92,35.06,0.00,0.00,
"USC00500522","1937-10-05",50.00,42.08,173.00,0.00,
"USC00500522","1937-10-06",55.04,46.04,452.00,0.00,
"USC00500522","1937-10-07",53.06,44.96,64.00,0.00,
"USC00500522","1937-10-08",53.06,46.94,127.00,0.00,
"USC00500522","1937-10-09",50.00,44.06,0.00,0.00,
"USC00500522","1937-10-10",50.00,46.04,508.00,0.00,
"USC00500522","1937-10-11",53.96,42.08,0.00,0.00,
"USC00500522","1937-10-12",51.08,44.06,79.00,0.00,
"USC00500522","1937-10-13",53.06,44.96,48.00,0.00,
"USC00500522","1937-10-14",53.06,46.94,0.00,0.00,
"USC00500522","1937-10-15",53.96,48.92,389.00,0.00,
"USC00500522","1937-10-16",50.00,44.96,373.00,0.00,
"USC00500522","1937-10-17",50.00,44.96,447.00,0.00,
"USC00500522","1937-10-18",50.00,42.98,284.00,0.00,
"USC00500522","1937-10-19",53.96,39.92,33.00,0.00,
"USC00500522","1937-10-20",46.94,39.02,297.00,0.00,
"USC00500522","1937-10-21",51.98,44.96,406.00,0.00,
"USC00500522","1937-10-22",57.92,48.92,691.00,0.00,
"USC00500522","1937-10-23",57.92,44.96,152.00,0.00,
"USC00500522","1937-10-24",48.02,42.98,848.00,0.00,
"USC00500522","1937-10-25",48.92,42.08,533.00,0.00,
"USC00500522","1937-10-26",48.02,37.04,0.00,0.00,
"USC00500522","1937-10-27",44.96,35.96,191.00,0.00,
"USC00500522","1937-10-28",46.04,35.96,0.00,0.00,
"USC00500522","1937-10-29",44.96,39.92,470.00,0.00,
"USC00500522","1937-10-30",44.96,39.02,485.00,0.00,
"USC00500522","1937-10-31",46.94,39.92,56.00,0.00,
"USC00500522","1937-11-01",46.04,37.04,0.00,,
"USC00500522","1937-11-02",53.96,39.02,0.00,,
"USC00500522","1937-11-03",50.00,42.98,376.00,,
"USC00500522","1937-11-04",50.00,42.98,767.00,,
"USC00500522","1937-11-05",50.00,37.94,185.00,,
"USC00500522","1937-11-06",42.98,37.94,61.00,,
"USC00500522","1937-11-07",44.96,35.96,36.00,,
"USC00500522","1937-11-08",39.92,30.92,0.00,,
"USC00500522","1937-11-09",42.08,30.02,0.00,,
"USC00500522","1937-11-10",39.02,26.06,0.00,,
"USC00500522","1937-11-11",37.94,30.02,0.00,,
"USC00500522","1937-11-12",42.08,28.94,0.00,,
"USC00500522","1937-11-13",39.92,28.04,0.00,,
"USC00500522","1937-11-14",50.00,28.94,0.00,,
"USC00500522","1937-11-15",48.02,33.08,0.00,,
"USC00500522","1937-11-16",46.04,32.00,0.00,,
"USC00500522","1937-11-17",46.04,35.06,0.00,,
"USC00500522","1937-11-18",39.92,30.92,0.00,,
"USC00500522","1937-11-19",37.94,28.94,0.00,,
"USC00500522","1937-11-20",35.96,30.02,76.00,,102.00
"USC00500522","1937-11-21",35.06,30.02,216.00,165.00,254.00
"USC00500522","1937-11-22",35.06,32.00,445.00,51.00,254.00
"USC00500522","1937-11-23",35.06,32.00,274.00,203.00,203.00
"USC00500522","1937-11-24",37.94,32.00,234.00,140.00,305.00
"USC00500522","1937-11-25",33.08,26.06,381.00,305.00,533.00
"USC00500522","1937-11-26",33.08,24.98,0.00,,483.00
"USC00500522","1937-11-27",33.98,28.04,64.00,,533.00
"USC00500522","1937-11-28",37.04,33.08,94.00,,483.00
"USC00500522","1937-11-29",39.92,32.00,437.00,,330.00
"USC00500522","1937-11-30",46.04,35.06,635.00,,178.00
"USC00500522","1937-12-01",37.94,32.00,0.00,0.00,178.00
"USC00500522","1937-12-02",37.04,30.92,0.00,0.00,152.00
"USC00500522","1937-12-03",35.96,30.02,0.00,0.00,152.00
"USC00500522","1937-12-04",37.94,32.00,81.00,76.00,229.00
"USC00500522","1937-12-05",44.06,32.00,244.00,58.00,229.00
"USC00500522","1937-12-06",35.06,30.02,0.00,0.00,203.00
"USC00500522","1937-12-07",37.94,26.06,0.00,0.00,
"USC00500522","1937-12-08",33.98,24.98,0.00,0.00,178.00
"USC00500522","1937-12-09",35.06,19.94,0.00,0.00,178.00
"USC00500522","1937-12-10",21.02,10.04,0.00,0.00,152.00
"USC00500522","1937-12-11",19.94,8.96,0.00,0.00,127.00
"USC00500522","1937-12-12",28.04,12.92,0.00,0.00,127.00
"USC00500522","1937-12-13",37.94,23.00,203.00,0.00,203.00
"USC00500522","1937-12-14",44.06,32.00,335.00,51.00,229.00
"USC00500522","1937-12-15",39.92,32.00,475.00,0.00,203.00
"USC00500522","1937-12-16",44.96,32.00,452.00,38.00,127.00
"USC00500522","1937-12-17",37.04,33.08,46.00,0.00,127.00
"USC00500522","1937-12-18",39.92,35.06,107.00,0.00,127.00
"USC00500522","1937-12-19",44.96,35.96,597.00,0.00,
"USC00500522","1937-12-20",44.96,33.98,81.00,0.00,
"USC00500522","1937-12-21",37.04,30.92,0.00,0.00,
"USC00500522","1937-12-22",37.94,26.96,0.00,0.00,
"USC00500522","1937-12-23",37.04,24.98,0.00,0.00,
"USC00500522","1937-12-24",33.98,17.96,0.00,0.00,
"USC00500522","1937-12-25",21.02,12.92,0.00,0.00,
"USC00500522","1937-12-26",21.02,12.92,0.00,0.00,
"USC00500522","1937-12-27",24.08,12.02,0.00,0.00,
"USC00500522","1937-12-28",21.92,10.94,117.00,127.00,254.00
"USC00500522","1937-12-29",26.06,14.00,422.00,511.00,762.00
"USC00500522","1937-12-30",28.04,19.94,102.00,140.00,838.00
"USC00500522","1937-12-31",28.04,19.94,13.00,25.00,762.00
"USC00500522","1938-01-01",33.98,21.92,196.00,229.00,762.00
"USC00500522","1938-01-02",35.96,26.96,208.00,178.00,737.00
"USC00500522","1938-01-03",44.96,32.00,279.00,0.00,559.00
"USC00500522","1938-01-04",46.04,33.08,274.00,0.00,533.00
"USC00500522","1938-01-05",44.06,32.00,348.00,0.00,483.00
"USC00500522","1938-01-06",44.96,33.98,325.00,0.00,356.00
"USC00500522","1938-01-07",44.96,33.98,673.00,0.00,254.00
"USC00500522","1938-01-08",46.04,35.06,239.00,0.00,229.00
"USC00500522","1938-01-09",44.96,30.02,89.00,58.00,279.00
"USC00500522","1938-01-10",37.94,21.02,38.00,56.00,279.00
"USC00500522","1938-01-11",35.96,28.04,76.00,84.00,305.00
"USC00500522","1938-01-12",44.96,26.96,89.00,102.00,330.00
"USC00500522","1938-01-13",39.92,28.04,155.00,178.00,457.00
"USC00500522","1938-01-14",37.04,28.04,38.00,30.00,483.00
"USC00500522","1938-01-15",39.92,26.96,218.00,0.00,381.00
"USC00500522","1938-01-16",42.98,33.98,767.00,0.00,254.00
"USC00500522","1938-01-17",44.96,33.08,485.00,0.00,152.00
"USC00500522","1938-01-18",39.92,32.00,104.00,0.00,127.00
"USC00500522","1938-01-19",39.92,30.92,107.00,20.00,152.00
"USC00500522","1938-01-20",39.02,32.00,173.00,102.00,229.00
"USC00500522","1938-01-21",37.94,32.00,163.00,0.00,203.00
"USC00500522","1938-01-22",35.96,28.04,160.00,94.00,254.00
"USC00500522","1938-01-23",33.98,21.02,15.00,38.00,279.00
"USC00500522","1938-01-24",37.94,24.98,597.00,318.00,533.00
"USC00500522","1938-01-25",37.94,32.00,137.00,0.00,508.00